| time (UTC) | temp C | wind direction | speed KPH | gust KPH | rain 1hr cm | rain 24hr cm | rain mn cm | humidity % | barometer mb |
| 20260505101530 | 17 | 272 | 0.0 | 3.2 | 0.00 | 0.00 | 0.00 | 88 | 1011.2 |
| 20260505100038 | 17 | 272 | 0.0 | 1.6 | 0.00 | 0.00 | 0.00 | 88 | 1011.2 |
| 20260505094516 | 18 | 272 | 0.0 | 4.8 | 0.00 | 0.00 | 0.00 | 88 | 1011.0 |
| 20260505093021 | 17 | 165 | 0.0 | 3.2 | 0.00 | 0.00 | 0.00 | 88 | 1011.2 |
| 20260505091518 | 17 | 165 | 0.0 | 3.2 | 0.00 | 0.00 | 0.00 | 88 | 1011.2 |
| 20260505090013 | 17 | 165 | 0.0 | 1.6 | 0.00 | 0.00 | 0.00 | 87 | 1011.3 |
| 20260505084511 | 18 | 165 | 0.0 | 0.0 | 0.00 | 0.00 | 0.00 | 87 | 1011.4 |
| 20260505083009 | 18 | 165 | 0.0 | 3.2 | 0.00 | 0.00 | 0.00 | 87 | 1011.3 |
| 20260505081510 | 18 | 165 | 0.0 | 0.0 | 0.00 | 0.00 | 0.00 | 87 | 1011.5 |
| 20260505080005 | 18 | 165 | 0.0 | 0.0 | 0.00 | 0.00 | 0.00 | 87 | 1011.7 |
| 20260505074503 | 18 | 165 | 0.0 | 1.6 | 0.00 | 0.00 | 0.00 | 87 | 1011.6 |
| 20260505073007 | 18 | 165 | 0.0 | 1.6 | 0.00 | 0.00 | 0.00 | 87 | 1011.6 |
| 20260505071600 | 19 | 165 | 0.0 | 0.0 | 0.00 | 0.00 | 0.00 | 86 | 1011.5 |
| 20260505070100 | 19 | 165 | 0.0 | 1.6 | 0.00 | 0.00 | 0.00 | 86 | 1011.4 |
| 20260505064557 | 20 | 165 | 0.0 | 0.0 | 0.00 | 0.00 | 0.00 | 86 | 1011.5 |
| 20260505063112 | 20 | 165 | 0.0 | 0.0 | 0.00 | 0.00 | 0.00 | 86 | 1011.4 |
| 20260505061555 | 20 | 165 | 0.0 | 0.0 | 0.00 | 0.00 | 0.00 | 86 | 1011.5 |
| 20260505060055 | 20 | 165 | 0.0 | 0.0 | 0.00 | 0.00 | 0.00 | 85 | 1011.6 |
| 20260505054554 | 20 | 165 | 0.0 | 0.0 | 0.00 | 0.00 | 0.00 | 85 | 1011.6 |
| 20260505053054 | 21 | 165 | 0.0 | 0.0 | 0.00 | 0.00 | 0.00 | 85 | 1011.7 |
| 20260505051554 | 21 | 165 | 0.0 | 0.0 | 0.00 | 0.00 | 0.00 | 85 | 1011.8 |
| 20260505041551 | 22 | 165 | 0.0 | 0.0 | 0.00 | 0.00 | 0.00 | 83 | 1011.5 |
| 20260505040051 | 22 | 165 | 0.0 | 0.0 | 0.00 | 0.00 | 0.00 | 83 | 1011.6 |
| 20260505034552 | 22 | 165 | 0.0 | 1.6 | 0.00 | 0.00 | 0.00 | 82 | 1011.5 |
| 20260505033052 | 22 | 165 | 0.0 | 0.0 | 0.00 | 0.00 | 0.00 | 82 | 1011.4 |
| 20260505031552 | 23 | 165 | 0.0 | 0.0 | 0.00 | 0.00 | 0.00 | 81 | 1011.3 |
| 20260505030049 | 23 | 165 | 0.0 | 0.0 | 0.00 | 0.00 | 0.00 | 81 | 1011.2 |
| 20260505024552 | 23 | 165 | 0.0 | 0.0 | 0.00 | 0.00 | 0.00 | 81 | 1011.1 |
| 20260505023051 | 23 | 165 | 0.0 | 1.6 | 0.00 | 0.00 | 0.00 | 80 | 1011.0 |
| 20260505021547 | 23 | 159 | 0.0 | 3.2 | 0.00 | 0.00 | 0.00 | 80 | 1010.8 |
| 20260505020049 | 23 | 167 | 0.0 | 6.4 | 0.00 | 0.00 | 0.00 | 79 | 1010.7 |
| 20260505014552 | 24 | 128 | 1.6 | 6.4 | 0.00 | 0.00 | 0.00 | 78 | 1010.6 |
| 20260505013044 | 24 | 147 | 0.0 | 6.4 | 0.00 | 0.00 | 0.00 | 77 | 1010.5 |
| 20260505011546 | 25 | 168 | 1.6 | 11.3 | 0.00 | 0.00 | 0.00 | 76 | 1010.4 |
| 20260505010103 | 25 | 170 | 1.6 | 8.0 | 0.00 | 0.00 | 0.00 | 75 | 1010.4 |
| 20260505004543 | 25 | 142 | 1.6 | 9.7 | 0.00 | 0.00 | 0.00 | 75 | 1010.4 |
| 20260505003045 | 25 | 159 | 4.8 | 9.7 | 0.00 | 0.00 | 0.00 | 74 | 1010.4 |
| 20260505001540 | 25 | 169 | 6.4 | 12.9 | 0.00 | 0.00 | 0.00 | 73 | 1010.5 |
| 20260505000045 | 25 | 167 | 8.0 | 12.9 | 0.00 | 0.00 | 0.00 | 72 | 1010.6 |
| 20260504234539 | 26 | 121 | 6.4 | 16.1 | 0.00 | 0.00 | 0.00 | 71 | 1010.7 |
| 20260504233039 | 26 | 160 | 6.4 | 16.1 | 0.00 | 0.00 | 0.00 | 70 | 1010.7 |
| 20260504231543 | 26 | 120 | 4.8 | 14.5 | 0.00 | 0.00 | 0.00 | 69 | 1010.8 |
| 20260504230042 | 27 | 178 | 4.8 | 22.5 | 0.00 | 0.00 | 0.00 | 69 | 1010.9 |
| 20260504224536 | 26 | 173 | 8.0 | 14.5 | 0.00 | 0.00 | 0.00 | 68 | 1010.9 |
| 20260504223035 | 27 | 144 | 6.4 | 14.5 | 0.00 | 0.00 | 0.00 | 68 | 1011.0 |
| 20260504221548 | 27 | 155 | 6.4 | 14.5 | 0.00 | 0.00 | 0.00 | 67 | 1011.2 |
| 20260504220035 | 27 | 204 | 4.8 | 14.5 | 0.00 | 0.00 | 0.00 | 67 | 1011.3 |
| 20260504214534 | 27 | 184 | 1.6 | 12.9 | 0.00 | 0.00 | 0.00 | 67 | 1011.5 |
| 20260504213046 | 27 | 144 | 3.2 | 16.1 | 0.00 | 0.00 | 0.00 | 68 | 1011.7 |
| 20260504211536 | 27 | 163 | 3.2 | 17.7 | 0.00 | 0.00 | 0.00 | 67 | 1011.9 |
| 20260504210032 | 27 | 132 | 8.0 | 17.7 | 0.00 | 0.00 | 0.00 | 66 | 1012.2 |
| 20260504204531 | 27 | 125 | 8.0 | 17.7 | 0.00 | 0.00 | 0.00 | 66 | 1012.6 |
| 20260504203043 | 27 | 146 | 4.8 | 20.9 | 0.00 | 0.00 | 0.00 | 67 | 1012.6 |
| 20260504201530 | 27 | 168 | 9.7 | 20.9 | 0.00 | 0.00 | 0.00 | 68 | 1012.8 |
| 20260504200029 | 27 | 128 | 8.0 | 17.7 | 0.00 | 0.00 | 0.00 | 68 | 1012.8 |
| 20260504194538 | 27 | 134 | 8.0 | 22.5 | 0.00 | 0.00 | 0.00 | 68 | 1012.8 |
| 20260504193028 | 27 | 173 | 6.4 | 24.1 | 0.00 | 0.00 | 0.00 | 68 | 1012.8 |
| 20260504191536 | 27 | 108 | 8.0 | 17.7 | 0.00 | 0.00 | 0.00 | 66 | 1012.8 |
| 20260504190027 | 27 | 120 | 6.4 | 17.7 | 0.00 | 0.00 | 0.00 | 66 | 1012.9 |
| 20260504184527 | 27 | 183 | 8.0 | 16.1 | 0.00 | 0.00 | 0.00 | 64 | 1012.8 |
| 20260504183025 | 27 | 148 | 4.8 | 16.1 | 0.00 | 0.00 | 0.00 | 65 | 1012.9 |
| 20260504181525 | 27 | 100 | 8.0 | 17.7 | 0.00 | 0.00 | 0.00 | 64 | 1013.2 |
| 20260504180024 | 27 | 165 | 4.8 | 16.1 | 0.00 | 0.00 | 0.00 | 67 | 1013.1 |
| 20260504174523 | 27 | 165 | 4.8 | 14.5 | 0.00 | 0.00 | 0.00 | 69 | 1013.2 |
| 20260504173022 | 27 | 164 | 4.8 | 16.1 | 0.00 | 0.00 | 0.00 | 70 | 1013.3 |
| 20260504171529 | 27 | 113 | 6.4 | 16.1 | 0.00 | 0.00 | 0.00 | 68 | 1013.5 |
| 20260504150110 | 23 | 329 | 0.0 | 3.2 | 0.00 | 0.00 | 0.00 | 66 | 1013.1 |